Location: Asheville, NC
(35.6000°N, 82.5500°W)
Time: 22:37:42

NO-84 - Pass Details

Date: 13 March 2018
Orbit: 339 x 558 km, 55.0° (Epoch: 15 March)

Event Time Altitude Azimuth Distance (km) Brightness Sun altitude
Exits shadow 06:41:54 - 325° (NW) 2,197 ? -13.4°
Reaches altitude 10° 06:43:17 10° 331° (NNW) 1,658 ? -13.1°
Maximum altitude 06:46:48 39° 41° (NE) 695 ? -12.4°
Drops below altitude 10° 06:50:03 10° 112° (ESE) 1,526 ? -11.7°
Sets 06:52:08 0° 121° (ESE) 2,346 ? -11.3°
